CZ-6A DEB, 61434

Orbit data source: Space-Track

CZ-6A DEB, 61434 is space debris in LEO originally from a launch on Tue, 06 Aug 2024 UTC launched from the Taiyaun Space Center, China (TSC). Debris objects in space refer to the collection of defunct objects orbiting the Earth. Examples of debris include non-operational satellites, rocket bodies, and fragments generated from explosions, collisions, or faulty payload assembly.

Loading next visibility...
Identifier
61434, 2024-140ZB
Orbit
LEO
Country
Flag of CNCN / PRC
Related business
Manufacturer
SAST
Mission
Spacecraft
Bus & Motor
Unknown
Mass
Unknown
Launch date (UTC)
2024-08-06 (2 years ago)
Launch vehicle
Unknown
Launch site
Taiyaun Space Center, China (TSC)
Object type
Payload
Rocket body
Debris
Shape & HBR
Unknown shape, 0.1 m
Radar Cross Section
Small (<0.1 m²)

Expand to show TLE details & history
Last TLE update: 14 hours ago

TLE from 14 hours ago
0 CZ-6A DEB
1 61434U 24140ZB  26171.27738152  .00039840  00000-0  20874-2 0  9998
2 61434  89.0465 270.6057 0085757 115.0202 245.9975 15.12431377 99342
Epoch: 2026-06-20T06:39Z
TLE epoch observation values (Epoch: 2026-06-20T06:39:25.763Z)
Latitude
-0.00002°
Longitude
-97.74596°
Altitude
556.494 km
Speed
7.57 km/s
True Right ascension
18h 02m 25s
True Declination
0° 00' 00"
Sunlit
Object was in full shadow at epoch
Visualization orbit readout
Latitude
Unknown
Longitude
Unknown
Altitude
Unknown
Speed
Unknown
Apparent Right ascension
Unknown
Apparent Declination
Unknown
Sunlit
N/A
Visualization observer readout
Local Sidereal Time
07:21:16
Azimuth
Unknown
Elevation
Unknown
Doppler factor
Unknown
Orbital elements
Apogee altitude
584.812 km
Perigee altitude
466.403 km
Semi-major axis
6,903.744 km
Eccentricity
0.00858
Inclination
89.0465°
RAAN
270.6057°
Arg. of periapsis
115.0202°
True anomaly
245.10371°
Mean anomaly
245.9975°
Eccentric anomaly
245.55021°
Mean motion
3.7837 °/min
Orbital period
95.15 mins
BSTAR
0.0020874
Loading maneuver chart data...
Computing Atmospheric mass density...
Loading historical data...
Loading historical data...
Loading historical data...
Loading historical data...
Loading historical data...
Loading historical data...
Loading historical data...

Documentation

Showing up to 5 results
|